Location: Del Amo
(33.8464°N, 118.2104°W)
Time: 08:18:44
(UTC+00:00)

Vanguard 1 Rocket - Pass Details

Date: 17 September 2024
Orbit: 650 x 4218 km, 34.3° (Epoch: 09 October)

Event Time Altitude Azimuth Distance (km) Brightness Sun altitude
Rises 10:02:46 0° 231° (SW) 4,573 - -42.0°
Reaches altitude 10° 10:05:13 10° 228° (SW) 3,912 - -41.7°
Exits shadow 10:14:50 62° 171° (S) 2,692 9.4 -40.1°
Maximum altitude 10:16:09 63° 149° (SSE) 2,775 9.5 -39.9°
Drops below altitude 10° 10:37:11 10° 75° (ENE) 7,014 12.6 -36.4°
Sets 10:43:27 0° 73° (ENE) 8,313 13.2 -35.3°
